Regional Weather Roundup
Issued by NWS

Home | Current Version | Previous Version | Graphics & Text | Print | Product List | Glossary On
Versions: 1 2 3 4 5 6 7 8 9 10 11 12 13 14 15 16 17 18 19 20 21 22 23 24 25 26 27 28 29 30 31 32 33 34 35 36 37 38 39 40 41 42 43 44 45 46 47 48 49 50
000
ASUS45 KSLC 302010
RWRUT

UTAH REGIONAL WEATHER ROUNDUP
NATIONAL WEATHER SERVICE SALT LAKE CITY UT
200 PM MDT TUE JUN 30 2015

UTZ001>011-023>025-302100-

NORTHERN UTAH

CITY           SKY/WX    TMP DP  RH WIND       PRES   REMARKS
BRIGHAM CITY   SUNNY     95  46  18 S6        30.06F HX  91
HILL AFB       SUNNY     94  50  22 VRB5      30.11F HX  90
LOGAN          SUNNY     95  44  17 CALM      30.07F HX  91
OGDEN          SUNNY     95  52  23 W8        30.07F HX  92
PROVO AIRPORT  PTSUNNY   95  48  20 CALM      30.07F HX  91
SALT LAKE CITY MOSUNNY   97  52  21 N8        30.04F HX  94
VERNAL         PTSUNNY   89  39  17 W6        30.12F
WENDOVER       MOSUNNY   99  46  16 E12       30.06F HX  95
HEBER CITY     SUNNY     95  41  15 CALM      30.15F HX  91
WEST JORDAN    SUNNY     95  52  23 N9G16     30.09F HX  92

$$

UTZ012>022-026-027-302100-

SOUTHERN/CENTRAL UTAH

CITY           SKY/WX    TMP DP  RH WIND       PRES   REMARKS
BLANDING       SUNNY     89  47  23 S3        30.24F
BRYCE CANYON   MOSUNNY   86  38  18 W6        30.33F
CEDAR CITY     PTSUNNY   86  44  23 SE9       30.16F
DELTA          SUNNY     96  39  13 SW6       30.08F HX  91
HANKSVILLE     SUNNY    100  37  11 SE9       30.03F HX  95
MILFORD        SUNNY     99  42  14 E6        30.08F HX  94
MOAB/CYNLANDS  SUNNY    100  42  13 S8        30.01F HX  95
PRICE          MOSUNNY   98  40  13 S12G20    30.13F HX  93
ST GEORGE      CLEAR    106  50  15 W10       29.93F HX 103
KANAB          SUNNY     99  45  15 W5        30.13F HX  94

$$

REGIONAL REPORTS     COLORADO/ARIZONA

CITY           SKY/WX    TMP DP  RH WIND       PRES   REMARKS
CRAIG, CO      MOSUNNY   94  42  16 VRB6      30.18F HX  90
GRAND JUNCTION SUNNY     96  42  15 W5        30.05F HX  92
RIFLE          MOSUNNY   95  40  14 NW6       30.11F HX  91
MONTROSE       SUNNY     93  44  18 VRB6      30.15F
CORTEZ         SUNNY     92  45  19 SW6       30.17F
PAGE, AZ       SUNNY    100  45  15 VRB5      30.02F HX  96
GRAND CANYON   LGT RAIN  79  53  40 VRB5G16   30.27S
KINGMAN        SUNNY    100  52  19 W14G25    30.02F HX  97
FLAGSTAFF      SUNNY     82  52  35 VRB3G18   30.31F

$$

REGIONAL REPORTS    NEVADA/IDAHO/WYOMING

CITY           SKY/WX    TMP DP  RH WIND       PRES   REMARKS
LAS VEGAS, NV  MOSUNNY  106  47  13 SW9       29.84F HX 102
ELY            MOSUNNY   93  38  14 SW10      30.20F
ELKO           SUNNY     97  45  16 SW10      30.12F HX  93
POCATELLO, ID  SUNNY     91  52  26 NW6       30.10F
BURLEY         MOSUNNY   92  52  25 NW7       30.06F
EVANSTON, WY   MOSUNNY   86  46  24 VRB7      30.28F
ROCK SPRINGS   SUNNY     90  43  19 NW15G24   30.22F
KEMMERER       SUNNY     86  41  20 NW12G17   30.30F

$$


USA.gov is the U.S. government's official web portal to all federal, state and local government web resources and services.